Theta_e
324 323 323 321 321 320 321 321 321 321 321 322 322 322 322 321 321 321 321 321 321 321 321 321 321 321 321 321 321 321 320 320 320 320 319 319 319 319 319 319 320 320 320 320 320 320 319 319 319 319 320 321 323 324 325 326 326 326 326 326 325 325 325 325 324 324 324 324 324 324 324 324 325 325 325 325 325 325 325 325 325 325 325 324 323 322
325 324 324 322 321 320 320 320 320 320 321 321 321 321 321 321 321 321 321 321 321 321 321 321 321 320 320 320 320 321 321 320 320 320 320 320 320 319 319 319 320 320 320 320 320 320 320 320 319 319 320 320 321 322 324 325 326 326 327 327 326 326 326 325 325 325 325 325 325 324 324 325 325 325 325 325 325 324 324 325 325 325 325 324 324 323
325 324 324 323 322 321 320 320 320 320 320 320 320 321 321 321 321 321 321 321 321 321 321 321 321 321 321 320 320 320 320 321 321 321 321 321 320 320 320 320 319 320 320 320 320 320 320 320 320 320 320 320 320 321 322 323 324 325 326 327 327 327 326 326 326 325 325 325 325 325 325 325 325 325 325 325 324 324 324 324 325 325 325 325 324 323
325 324 324 324 323 323 322 321 320 320 320 320 320 320 320 320 320 321 321 321 321 321 321 321 321 321 321 321 320 320 320 320 321 321 321 321 321 321 320 320 320 320 320 320 320 320 320 320 320 320 320 320 320 321 321 322 322 323 324 326 327 327 327 327 326 326 325 325 325 325 325 325 325 325 325 325 324 324 324 324 325 325 325 325 324 323
325 325 324 324 324 323 323 322 321 321 320 320 320 320 320 320 320 320 321 321 321 321 321 321 321 321 321 321 321 321 320 321 321 321 321 321 321 321 321 320 320 320 320 320 320 320 320 320 320 320 321 321 321 321 321 322 322 322 323 324 325 326 327 327 327 326 326 325 325 325 325 326 326 326 325 325 325 324 324 325 325 325 325 325 324 323
324 324 324 324 324 324 324 323 323 322 321 321 321 321 321 321 321 321 321 321 321 321 321 321 321 321 321 321 321 321 321 321 321 321 321 321 321 321 321 320 320 320 320 320 320 320 320 320 320 320 320 321 321 321 321 322 322 322 322 323 324 325 327 327 327 327 326 326 325 325 325 326 326 326 326 325 325 325 325 325 325 325 326 325 325 324
324 324 324 324 324 324 324 324 324 323 323 322 322 322 322 321 321 320 320 320 321 321 321 321 321 321 321 321 321 321 321 321 321 321 321 321 321 321 320 320 320 320 320 320 321 321 320 320 320 320 320 321 321 321 322 322 322 322 322 323 324 325 327 327 327 327 326 326 326 325 325 325 326 326 326 325 325 325 325 325 325 326 326 325 325 324
323 323 323 324 324 324 324 324 324 323 323 323 322 322 322 321 321 321 321 320 321 321 321 321 321 321 321 321 321 321 321 321 321 321 321 321 321 321 320 320 320 321 321 321 321 321 321 321 321 320 320 321 321 321 322 322 322 322 323 323 324 325 326 327 327 327 326 326 326 325 325 325 325 325 325 325 325 325 325 325 325 325 325 325 325 324
321 322 323 323 323 323 324 324 323 323 323 323 323 323 322 322 322 321 321 321 321 321 321 321 322 322 322 322 322 322 322 322 322 322 321 321 321 321 321 321 321 321 321 321 321 321 321 321 321 321 321 321 321 321 322 322 323 323 323 324 324 325 326 326 326 326 326 326 325 325 325 325 325 324 325 325 325 325 325 325 324 324 324 324 324 324
319 320 320 321 322 323 323 323 323 323 323 323 323 323 323 322 322 322 321 321 321 321 321 322 322 323 323 323 323 323 323 322 322 322 322 321 321 321 321 321 321 321 321 321 321 321 321 321 321 321 321 321 322 322 322 322 323 323 323 324 324 325 325 325 325 325 325 325 325 324 324 324 324 324 324 324 324 325 325 325 324 323 323 323 323 323
316 317 318 319 320 321 322 323 323 323 323 323 323 323 323 322 322 322 321 321 321 321 321 322 322 323 323 323 323 323 323 323 323 322 322 322 322 321 321 321 321 321 321 321 322 322 322 322 322 322 322 322 322 323 323 323 323 323 323 323 324 324 324 324 324 324 324 324 324 324 324 324 323 323 323 323 323 324 325 325 324 323 323 323 323 323
311 312 314 315 316 318 320 321 322 323 323 323 323 322 322 322 322 322 322 322 321 321 321 321 322 322 322 323 323 323 323 323 323 323 322 322 322 322 322 321 321 321 322 322 322 322 322 322 322 323 323 323 323 323 323 323 323 323 323 322 322 322 323 323 323 322 322 323 323 323 323 323 323 323 323 322 323 324 325 325 324 323 323 323 323 323
307 307 308 309 310 312 314 317 319 321 322 322 322 322 322 322 322 322 322 322 322 321 321 321 321 321 321 322 322 322 322 323 323 323 323 322 322 322 322 322 322 322 322 322 322 322 322 323 323 323 323 323 323 323 323 322 322 322 322 321 321 321 321 322 322 322 322 322 322 323 323 323 323 323 323 323 323 324 324 325 324 323 323 323 323 323
305 305 305 305 306 307 308 311 313 314 316 318 320 321 322 322 322 322 322 322 322 322 321 321 321 321 321 321 321 321 321 322 322 322 322 322 322 322 322 322 322 322 322 323 322 322 322 323 323 323 323 322 322 322 322 322 322 321 321 321 321 321 321 321 321 322 322 322 322 323 323 323 323 324 324 324 324 324 324 324 324 324 323 323 323 323
303 304 303 303 303 304 305 306 306 307 308 311 313 315 317 319 320 321 321 322 322 322 322 322 322 321 321 321 322 321 321 321 321 322 322 322 322 322 322 322 322 322 323 323 323 323 322 323 323 323 322 322 322 321 321 321 321 321 321 321 321 321 321 321 321 322 322 322 322 323 323 323 323 324 324 324 324 324 324 325 325 324 323 323 323 322
301 301 301 301 302 302 303 303 303 304 305 307 309 311 314 316 316 317 318 318 318 320 321 322 323 323 322 322 322 322 322 322 322 322 322 322 322 322 322 322 322 322 323 323 323 323 322 322 322 322 322 322 322 321 321 321 321 321 321 321 321 321 321 322 322 323 323 323 323 323 323 323 323 324 324 324 324 324 324 325 325 324 323 323 323 322
299 299 299 300 301 301 301 302 302 302 303 305 307 308 309 310 311 312 314 315 317 318 318 319 321 323 323 323 323 323 323 323 322 322 322 322 322 322 322 322 322 323 323 323 323 323 323 323 323 322 322 322 322 322 322 322 322 322 322 322 322 322 322 323 323 323 323 323 323 323 323 323 323 323 324 324 324 324 324 324 324 324 324 323 323 323
298 299 299 300 300 300 300 300 301 301 302 304 305 306 306 306 307 308 310 312 315 316 317 316 317 319 321 322 323 323 323 323 323 323 323 323 323 323 323 323 323 323 323 323 323 323 323 323 323 323 323 323 323 323 323 323 323 323 323 323 323 323 323 323 323 323 323 323 323 323 323 323 323 323 323 324 324 324 324 324 324 324 324 323 323 323
297 298 299 299 299 299 299 299 300 300 301 302 303 304 304 305 305 306 307 308 310 312 313 314 314 314 315 318 320 321 322 322 323 323 323 323 323 323 323 323 323 323 323 323 323 323 323 323 324 324 324 324 324 324 324 323 323 323 323 323 323 324 324 324 324 323 323 323 322 322 322 322 323 323 323 324 324 324 324 324 324 323 324 323 323 323
297 297 297 298 298 298 299 299 300 300 300 300 301 302 302 303 303 304 305 306 307 308 309 310 311 312 313 314 315 317 318 320 321 322 322 323 323 323 323 323 323 323 324 324 324 324 324 324 324 324 324 324 324 323 323 323 323 323 323 323 323 323 323 323 323 323 322 322 322 322 322 322 322 323 323 323 324 323 324 323 323 323 323 323 323 323
296 296 296 296 297 298 299 299 299 299 299 299 300 300 300 301 301 302 303 304 305 306 307 307 308 309 311 313 315 316 316 317 319 321 322 322 323 323 323 323 324 324 324 324 324 324 324 324 324 324 323 323 322 322 322 322 322 322 322 322 322 322 322 322 322 322 322 322 321 321 321 322 322 322 323 323 323 323 323 323 323 323 322 322 322 322
295 295 296 296 297 297 297 298 298 298 298 297 298 298 298 299 299 300 301 301 302 303 305 305 307 308 309 311 312 314 315 315 317 318 320 321 322 322 323 323 323 324 324 324 324 324 324 324 323 323 322 322 321 321 321 321 321 321 321 321 321 321 321 321 321 321 321 321 321 321 321 321 322 322 322 323 323 323 323 323 323 322 322 322 322 322
294 295 296 296 296 296 296 297 297 296 296 296 296 296 297 297 298 298 299 299 300 301 302 304 306 307 308 309 311 312 313 315 315 317 319 320 321 321 322 322 322 322 322 323 323 323 323 322 322 321 321 320 320 320 320 320 320 320 320 320 320 320 320 320 321 321 321 321 321 321 321 321 321 322 322 322 323 323 323 323 322 322 321 321 321 321
293 293 294 294 295 295 295 295 296 296 295 295 295 295 295 296 296 297 297 298 299 300 301 303 304 306 308 309 310 311 312 313 314 315 317 319 320 320 321 321 321 321 321 321 322 322 321 321 321 320 320 320 320 319 319 319 319 319 320 320 320 320 320 320 320 320 321 321 321 321 321 321 322 322 322 322 322 323 323 323 322 321 321 321 321 321
290 291 292 293 294 295 295 295 296 295 295 295 294 294 294 294 295 295 296 297 298 299 300 301 303 304 306 307 308 309 310 311 312 313 315 317 318 319 320 320 320 320 320 320 320 320 320 320 319 319 319 319 319 319 319 319 319 319 319 319 319 320 320 320 320 320 320 321 321 321 322 322 322 321 321 322 322 322 322 322 322 321 320 320 320 320
288 289 289 290 291 291 292 293 293 293 293 293 293 293 293 293 294 294 295 296 297 297 298 300 301 302 303 304 305 306 307 308 309 311 313 315 317 317 318 318 319 319 319 319 319 319 319 319 319 319 319 319 319 319 319 319 319 319 320 319 320 319 320 320 320 320 320 321 321 321 321 321 321 321 321 321 322 322 322 322 321 320 320 320 320 319
288 288 288 288 288 288 289 289 289 290 290 290 291 291 291 291 292 293 294 295 295 296 297 298 299 300 302 303 304 304 305 306 307 308 311 313 315 316 316 317 317 317 317 317 318 318 318 318 318 319 319 319 319 319 319 319 319 320 320 320 320 320 319 320 320 320 321 321 321 321 321 321 321 321 321 321 321 321 321 321 320 320 320 320 320 318
288 288 288 288 288 288 288 288 288 288 288 289 289 289 290 290 291 292 292 293 293 294 295 296 297 299 300 301 302 303 304 304 305 306 308 309 312 313 314 315 316 316 316 316 316 316 317 317 318 318 319 319 319 320 320 320 319 319 319 319 320 320 320 320 320 320 321 321 321 321 321 321 321 320 321 321 321 321 320 320 319 319 319 320 319 317
288 288 288 288 288 288 288 288 288 288 288 288 288 289 289 289 290 291 291 292 292 293 294 294 295 297 298 299 300 301 302 303 305 305 306 306 308 310 312 313 314 315 315 315 315 315 315 316 316 317 318 319 319 319 319 319 319 319 319 319 319 319 319 320 320 320 320 320 320 320 320 320 320 320 320 321 321 320 320 319 318 318 319 319 318 317
288 288 288 288 288 288 288 288 288 288 288 288 288 289 289 289 289 290 290 291 292 293 294 294 295 295 296 297 298 300 301 303 304 305 305 306 307 308 309 311 312 313 313 313 314 314 314 314 315 316 317 318 319 319 319 319 319 318 319 319 319 319 319 320 320 320 320 320 320 320 320 319 319 320 320 320 320 320 319 318 318 318 318 318 318 316
288 288 288 288 288 288 288 288 288 288 288 288 288 288 289 289 289 290 290 290 291 293 294 295 296 296 296 297 298 299 300 302 303 304 305 306 307 307 308 309 310 310 311 312 312 313 313 313 314 315 316 317 318 318 319 318 318 318 318 318 319 319 319 319 320 320 320 319 319 319 319 319 319 319 319 319 319 319 318 318 317 317 317 318 317 316
288 288 288 288 288 288 288 288 288 288 288 288 288 288 289 289 289 290 290 290 291 292 293 295 296 296 297 297 298 298 299 299 300 301 303 304 306 306 307 307 308 308 309 310 311 312 312 313 313 313 314 315 316 317 317 318 318 317 317 318 318 318 319 319 319 319 319 319 319 318 318 318 319 319 319 319 318 318 318 317 317 317 317 317 317 317
288 288 288 288 288 288 288 288 288 288 288 288 288 288 289 289 289 290 290 291 291 292 293 294 295 296 297 298 298 299 299 299 299 299 300 301 303 304 305 305 306 306 307 308 309 310 311 311 311 311 311 312 313 314 315 316 316 317 317 317 318 318 318 318 318 318 318 318 318 318 318 318 318 318 318 318 318 317 317 317 317 317 317 317 317 317
288 288 288 288 288 288 288 288 288 287 287 287 288 288 288 288 289 289 290 290 291 292 292 293 294 295 296 297 298 299 300 300 300 300 300 300 301 302 303 304 304 305 306 306 307 308 309 309 309 309 309 310 310 311 313 314 315 316 316 317 317 317 318 318 318 318 318 318 317 317 317 317 317 317 317 317 317 317 317 317 317 317 317 318 318 317
288 288 288 288 288 288 288 288 288 288 287 287 287 287 288 288 288 288 289 290 290 291 291 292 293 293 294 295 296 297 299 300 301 302 302 303 303 303 303 303 303 304 305 305 306 307 308 308 308 308 308 308 309 310 311 312 313 315 315 316 316 317 317 317 317 317 317 317 317 317 317 316 316 316 316 316 316 317 317 317 317 317 318 318 318 317
287 287 287 287 287 287 287 287 287 287 287 287 287 287 287 288 288 288 288 288 289 290 290 291 292 292 293 294 294 295 297 298 300 301 302 303 304 304 304 304 303 304 304 305 306 306 307 308 308 308 308 308 308 309 309 311 312 313 314 315 316 316 316 317 317 317 317 317 316 316 316 316 316 315 316 316 316 316 316 317 317 317 317 317 317 317
286 286 286 287 287 286 286 287 287 287 287 287 287 288 288 288 288 288 287 288 288 288 289 289 290 291 292 292 293 293 294 296 298 300 301 301 302 303 305 305 304 304 304 305 306 306 307 307 308 308 308 308 308 308 308 309 310 311 313 314 315 315 316 316 316 316 316 316 316 316 316 315 315 315 315 316 316 316 316 316 317 317 317 317 317 317
286 286 286 286 286 286 286 286 286 286 286 286 287 287 288 288 288 288 288 287 287 287 288 288 288 289 289 291 292 292 293 295 297 299 301 301 301 302 303 304 305 305 305 305 306 307 307 308 308 308 308 307 307 307 308 308 309 310 311 313 314 314 315 315 315 315 315 315 315 315 315 315 315 315 315 316 316 316 316 316 316 316 316 316 316 316
286 286 286 286 286 286 286 286 286 286 286 286 286 287 287 287 288 288 288 288 288 288 288 288 288 288 288 289 290 291 292 294 296 298 300 301 301 301 302 303 304 305 305 305 306 307 307 308 308 308 308 307 307 307 307 308 309 309 310 311 312 313 314 314 314 315 315 315 315 315 315 315 315 315 315 315 316 316 316 316 316 316 316 316 316 315
286 286 286 286 286 285 285 285 285 286 286 286 286 286 286 287 287 288 288 288 288 288 288 288 288 289 290 290 290 290 291 293 295 297 298 300 301 301 301 302 303 304 305 305 306 306 307 308 308 308 308 307 307 307 307 308 308 309 309 310 311 312 313 313 314 314 314 314 314 314 314 314 315 315 315 315 315 315 316 316 316 316 316 315 315 315
286 286 286 286 286 286 286 286 286 286 286 286 286 286 286 286 286 287 288 288 288 288 288 288 288 289 290 291 291 290 290 292 293 295 297 298 299 300 300 301 301 302 303 304 305 306 307 307 308 308 308 308 307 307 307 307 308 308 309 310 310 311 312 312 313 313 313 314 314 314 314 314 314 315 315 315 315 315 315 315 315 315 315 315 315 315
285 285 286 286 286 286 287 287 287 286 286 286 285 285 285 285 285 286 287 287 288 288 288 288 288 288 289 290 291 292 292 292 293 294 296 297 298 299 300 300 300 301 301 302 303 304 305 306 307 308 308 308 308 307 307 307 307 308 308 309 310 310 311 312 312 312 312 313 313 314 314 314 314 314 315 315 315 315 315 315 315 315 315 315 315 315
285 285 286 286 287 287 287 287 287 287 286 286 285 285 285 285 285 285 286 286 287 288 288 288 288 288 289 290 291 291 292 292 293 294 295 296 298 299 300 300 300 301 301 301 301 302 303 305 306 307 308 308 308 308 307 307 307 307 308 308 309 310 310 311 311 311 312 312 313 313 314 314 314 314 314 314 314 314 314 314 315 315 315 314 314 314
284 285 285 286 287 287 287 288 288 287 287 287 286 286 286 285 285 285 285 286 287 287 288 288 288 288 289 289 290 290 291 292 293 294 294 296 297 298 299 300 301 301 301 301 301 301 302 303 304 305 307 308 308 308 307 307 307 307 307 307 308 309 310 310 311 311 311 312 312 313 313 314 314 314 314 314 314 313 313 314 314 315 314 314 313 313
283 284 285 286 286 287 287 288 288 288 288 287 287 287 286 286 285 285 284 285 286 287 287 287 287 288 288 288 289 289 290 291 292 293 293 294 296 297 298 299 300 300 301 300 300 300 300 301 302 304 305 306 307 308 308 307 307 307 307 307 307 307 308 309 310 311 311 311 311 312 313 313 314 314 314 313 313 313 313 313 313 314 314 313 313 313
282 283 284 285 285 286 286 286 287 287 287 287 288 287 287 286 286 285 284 285 285 286 287 287 287 287 287 288 288 289 289 290 291 292 292 293 294 295 296 297 297 298 299 300 300 300 300 300 301 302 304 305 306 307 308 307 307 307 307 307 307 307 307 308 309 310 311 311 311 311 312 313 313 313 313 312 312 312 312 312 313 313 313 313 313 313
281 282 283 283 284 284 285 285 286 286 286 287 287 288 287 287 286 286 285 285 285 286 286 287 287 287 287 288 288 288 288 289 290 291 292 293 293 294 294 295 296 297 299 300 300 300 300 299 300 301 302 304 305 306 307 307 307 307 307 306 306 306 306 307 308 309 310 310 311 311 311 311 312 312 312 312 312 312 312 312 312 312 313 313 313 313
281 281 281 282 282 282 283 283 284 284 285 286 286 287 287 287 287 286 286 286 286 286 286 286 287 287 288 288 288 289 289 289 289 289 290 291 292 293 294 294 295 297 298 299 300 300 300 300 300 301 302 303 304 305 306 307 307 307 307 306 306 306 306 306 307 308 309 309 310 310 310 310 311 311 312 311 311 311 310 311 311 312 312 312 313 313
280 280 280 281 281 281 281 282 282 282 283 284 285 286 287 287 287 286 286 286 286 286 285 286 286 287 287 288 289 290 290 290 290 289 289 290 291 292 293 294 295 296 297 298 299 300 300 299 299 300 301 302 303 304 305 306 307 307 307 306 306 306 305 305 306 307 308 308 309 309 309 310 311 311 312 311 310 310 310 310 311 311 311 311 312 312
280 280 280 280 280 280 281 281 281 281 282 282 283 284 285 286 287 287 286 286 286 285 285 285 285 286 287 287 288 289 290 291 291 290 290 290 290 291 292 293 294 294 295 296 297 298 298 298 298 299 300 301 302 303 304 305 306 306 307 307 306 306 305 305 305 306 307 307 308 308 308 309 309 310 311 311 311 310 310 310 310 310 310 311 311 311
279 279 279 280 280 280 280 281 281 281 281 282 282 282 283 284 285 286 286 286 286 285 285 285 285 286 286 287 288 289 290 290 291 291 291 291 290 290 291 291 292 293 293 295 296 297 297 297 298 298 299 300 301 302 303 304 305 306 306 307 307 306 305 305 305 305 306 306 307 307 308 308 308 309 309 310 310 310 309 309 309 310 310 310 310 311
Wind_Speed
36 34 31 29 29 30 33 35 36 37 38 38 38 38 39 39 41 42 43 44 45 47 48 49 50 50 49 47 45 44 44 44 44 45 45 45 46 46 46 44 40 36 33 31 31 32 33 34 34 33 32 32 32 33 35 36 37 38 39 40 41 42 42 42 43 43 43 43 43 42 40 39 38 38 37 37 36 34 34 35 36 37 37 36 35 34
40 39 37 34 32 31 32 33 35 36 37 37 37 38 39 39 40 41 43 45 47 49 51 53 56 58 59 59 57 55 52 50 49 48 48 48 49 50 51 51 48 44 40 37 36 36 37 38 38 38 37 36 35 34 35 35 35 36 38 39 40 41 41 42 43 44 44 43 43 43 42 41 40 39 38 37 36 34 34 36 37 38 39 38 37 36
40 40 41 40 38 36 35 35 36 36 36 37 37 38 39 40 41 42 43 45 47 48 51 53 56 60 63 65 66 66 64 61 58 55 53 52 52 53 54 55 54 52 48 44 42 41 41 41 42 42 42 41 39 38 37 36 35 36 37 38 39 40 41 42 43 44 44 44 44 43 43 42 41 40 39 38 36 35 35 36 38 40 40 40 39 38
42 41 42 42 41 41 40 40 40 39 39 39 39 39 40 41 42 43 44 45 46 48 50 51 54 56 60 63 66 67 68 67 64 61 57 55 55 55 56 57 57 56 54 51 48 46 45 45 45 45 45 44 43 41 40 38 37 37 37 38 39 40 41 42 42 43 44 44 44 44 44 43 42 41 41 40 38 37 36 37 39 41 42 42 41 39
44 43 43 42 41 42 44 44 45 45 44 43 42 42 42 43 44 45 45 46 47 48 49 50 52 53 55 57 59 61 62 63 61 59 57 55 55 55 55 55 55 56 55 55 54 52 51 50 49 48 47 47 46 44 43 41 40 39 39 39 40 41 42 42 42 42 42 43 44 44 44 44 43 43 42 42 40 39 38 38 40 42 43 43 42 41
44 44 44 43 42 42 44 46 47 48 48 48 47 46 45 45 45 46 46 47 47 48 49 50 50 51 52 53 54 54 54 54 54 54 53 53 53 53 53 52 53 53 54 55 56 57 56 55 53 52 51 50 48 47 45 44 43 42 41 41 41 42 43 43 42 41 41 41 42 43 44 44 44 44 44 43 43 42 41 40 41 42 44 45 44 42
41 44 44 44 45 45 46 47 48 48 48 48 48 48 47 47 47 47 47 48 48 48 48 48 49 50 50 51 51 51 51 51 51 51 52 52 52 53 53 53 53 53 54 55 56 58 58 58 56 55 54 52 51 49 48 46 45 44 44 43 43 44 44 43 41 40 39 39 40 41 43 44 44 44 44 44 44 44 45 44 44 45 46 46 46 44
32 38 42 44 46 47 48 48 48 48 48 48 48 48 48 48 49 49 49 49 49 48 47 47 47 48 48 49 50 50 50 51 51 51 52 52 54 55 56 55 55 55 54 54 55 56 57 57 57 56 55 54 53 51 49 48 47 46 45 44 44 44 43 42 41 40 39 39 39 40 42 43 44 44 44 44 44 45 46 47 48 48 48 48 47 45
18 24 31 38 43 46 47 49 49 49 48 47 47 48 49 50 51 51 51 51 50 49 47 45 45 46 47 47 48 49 50 51 51 52 52 53 55 57 57 56 55 53 52 51 52 54 55 56 55 55 55 54 53 52 50 49 48 46 45 44 44 43 42 41 40 39 39 39 39 40 41 42 43 43 43 43 44 45 47 49 50 49 49 48 47 45
10 11 16 24 32 39 44 47 49 49 48 46 45 46 47 49 50 52 52 52 51 50 48 46 45 45 45 46 46 47 48 49 50 51 51 53 54 55 54 53 51 50 49 49 49 51 53 53 53 53 53 52 52 51 50 49 47 45 43 42 42 42 41 40 40 39 39 40 40 40 41 42 42 42 42 43 44 46 48 50 50 50 49 48 46 45
4 5 5 8 14 23 32 39 44 48 49 46 44 43 43 45 48 49 51 52 52 51 50 48 47 46 46 45 45 45 46 47 48 49 50 51 52 52 51 50 49 48 47 47 48 49 50 51 51 50 50 49 49 48 48 46 44 42 41 41 41 41 40 40 40 40 40 41 41 42 42 43 43 43 43 43 45 47 49 50 51 51 51 49 47 45
5 3 2 1 1 5 12 21 30 37 43 45 46 45 44 46 47 48 49 51 52 52 52 51 51 50 48 47 46 45 45 46 47 48 49 50 50 50 49 49 48 48 47 47 47 48 49 49 49 48 48 47 47 46 45 44 42 41 41 41 41 41 41 41 41 42 42 42 43 43 44 44 45 45 44 45 46 48 49 50 51 52 52 50 48 47
12 10 9 7 7 6 3 1 7 15 24 32 38 42 44 45 46 47 48 50 51 52 53 53 54 53 53 52 50 49 48 48 49 49 50 51 51 51 50 50 49 49 48 48 48 49 49 49 48 48 48 48 48 47 46 45 44 44 43 43 44 44 44 44 44 43 43 43 44 44 45 46 46 46 46 47 48 48 48 49 51 53 53 51 49 48
19 17 16 15 15 13 10 8 8 5 1 9 16 22 27 32 35 38 42 45 48 50 52 52 54 55 56 56 55 54 53 53 53 53 54 54 55 54 54 53 52 51 50 49 50 50 50 50 50 51 51 52 52 52 51 50 50 49 49 48 48 47 47 46 46 45 45 44 45 45 46 46 47 47 47 48 48 48 47 47 50 52 53 52 50 49
23 23 22 22 21 20 17 15 14 12 8 2 2 5 9 13 17 20 24 29 35 39 43 46 50 53 56 57 57 57 57 57 57 57 58 58 59 59 57 56 54 53 52 52 52 52 52 52 53 54 55 56 56 56 56 56 55 55 54 53 52 51 49 48 47 47 46 45 45 45 45 46 47 47 48 48 47 47 46 46 48 50 52 52 51 51
24 24 23 23 23 23 22 20 19 18 15 10 5 2 2 4 6 8 10 12 16 20 24 31 38 45 51 55 57 57 58 58 59 59 60 60 61 60 59 57 56 55 54 54 54 54 54 55 55 56 57 57 58 57 57 57 56 56 55 54 53 51 50 49 48 47 46 46 45 44 45 45 46 46 47 47 46 45 45 44 46 48 51 52 52 52
23 23 23 23 23 22 21 20 20 20 20 17 13 9 7 6 5 4 5 7 9 10 11 15 22 31 38 45 51 55 56 57 57 58 59 60 59 58 57 56 56 55 55 56 56 56 56 56 56 56 56 56 55 54 53 53 52 51 51 50 49 49 48 48 47 46 46 45 44 43 43 43 44 45 45 45 45 44 43 44 45 47 49 50 52 54
21 21 22 22 21 20 19 18 19 21 23 22 19 16 14 13 12 10 8 6 6 7 7 7 11 16 21 25 32 41 47 50 52 54 56 57 57 56 54 53 54 54 54 55 55 56 55 55 55 54 52 51 50 49 48 47 47 47 46 46 46 46 46 46 45 45 44 43 42 42 41 42 42 43 43 43 43 42 42 43 45 47 48 49 51 54
17 17 18 18 18 17 16 17 19 22 23 24 23 22 21 20 18 16 13 10 7 6 5 5 6 8 11 12 14 20 28 36 43 47 50 52 53 54 52 52 52 51 52 52 52 52 52 51 51 50 49 47 46 45 45 44 44 44 44 44 44 44 44 43 43 43 42 41 41 40 40 40 40 41 41 41 41 41 41 42 45 47 49 50 51 55
12 12 14 14 15 17 18 19 21 22 24 25 26 27 27 26 24 22 19 16 13 10 8 8 8 8 8 9 10 11 13 20 29 38 44 47 49 51 51 51 51 51 50 49 48 48 48 48 48 47 46 45 43 42 41 40 40 40 40 40 40 40 40 41 41 41 40 40 40 39 39 39 39 39 39 40 40 40 40 42 44 47 50 51 53 56
10 10 10 12 15 18 20 21 23 24 25 28 29 30 30 29 28 27 24 22 19 16 14 15 14 12 10 11 10 9 10 13 19 28 35 40 44 47 49 49 50 51 51 49 48 47 46 46 45 43 41 39 37 36 35 35 35 35 36 37 37 37 38 38 38 39 39 39 39 39 39 39 39 39 39 39 39 40 40 42 44 48 51 53 56 58
13 14 15 15 16 18 20 22 24 26 27 29 29 30 31 30 30 29 28 26 24 22 21 21 20 17 14 13 12 11 10 11 15 21 28 33 38 41 44 46 48 49 49 49 48 47 45 43 40 38 35 33 31 31 31 31 32 32 33 34 35 35 36 36 37 38 38 39 39 39 39 39 39 39 39 39 39 40 40 42 44 48 51 55 58 60
16 17 18 18 19 20 21 23 24 25 27 27 28 29 30 30 30 30 30 29 27 27 26 26 24 21 18 17 14 11 9 10 12 16 23 29 33 35 37 40 42 43 44 44 44 42 40 38 35 33 31 29 28 28 28 29 29 30 31 32 33 34 35 36 37 37 38 38 38 38 38 38 38 38 39 39 39 40 41 42 44 47 51 55 59 60
16 18 19 20 21 22 23 24 24 25 25 26 27 27 28 29 30 30 30 30 30 30 29 29 28 26 24 21 18 14 9 8 9 13 19 26 29 31 32 33 34 35 36 36 36 36 34 32 30 29 28 27 26 26 26 27 28 29 30 31 32 34 35 36 36 36 37 37 37 37 37 37 37 37 38 38 38 39 40 42 43 46 50 55 58 58
15 17 19 20 21 22 23 24 25 25 26 26 26 27 27 28 29 31 31 31 31 31 30 30 30 29 28 26 24 20 13 9 9 11 17 23 27 28 28 29 29 30 30 30 30 30 29 28 27 26 26 26 26 26 26 26 27 28 29 30 32 33 34 35 35 35 36 36 36 36 36 36 36 36 36 37 38 39 40 40 42 45 50 54 57 55
16 16 17 18 19 20 22 23 25 25 26 26 27 27 27 28 29 30 31 31 30 29 28 27 28 28 28 27 26 24 21 16 12 12 15 21 26 27 27 27 26 26 27 27 27 26 26 25 25 25 25 26 26 26 26 26 27 27 29 30 31 33 34 34 34 34 34 35 35 35 35 35 35 35 35 36 37 38 38 39 40 44 49 53 55 52
18 18 18 18 17 17 18 19 21 22 23 23 24 25 25 26 27 29 29 29 27 26 25 25 26 27 28 27 25 24 23 21 18 14 14 18 23 27 27 27 26 25 25 25 25 24 24 24 24 24 25 26 26 26 26 26 26 27 28 29 30 31 32 33 33 33 34 34 34 34 34 34 34 34 34 35 36 37 37 37 39 43 48 52 52 49
21 21 21 20 18 16 15 14 14 15 16 16 17 18 19 21 22 23 24 24 23 23 24 23 24 26 27 27 27 26 26 26 24 20 17 17 21 25 27 26 26 25 24 24 24 23 23 23 23 24 25 25 25 26 26 26 26 27 28 29 30 30 31 31 32 32 33 33 34 34 33 33 33 33 34 35 36 35 35 36 39 44 49 51 50 48
23 22 22 20 19 17 15 13 12 11 10 10 10 11 12 14 16 17 18 19 20 21 22 23 23 25 27 28 30 31 32 32 31 27 23 20 20 23 24 25 25 25 24 23 23 24 24 23 23 23 24 24 25 25 25 25 26 27 28 28 29 30 30 31 32 32 33 33 33 33 33 32 33 33 34 35 35 34 34 37 41 46 50 51 50 47
24 23 22 20 19 17 16 14 12 11 9 8 7 7 7 9 11 13 14 15 15 16 17 19 21 22 24 26 28 30 32 32 30 27 23 20 19 20 21 22 23 23 23 22 23 23 24 23 22 22 22 23 24 25 25 25 25 26 27 28 29 29 30 31 32 32 33 33 33 32 32 32 32 33 34 35 34 34 35 38 43 48 51 52 50 48
25 23 22 20 19 18 17 15 14 12 11 9 8 7 6 6 7 8 9 11 11 12 13 15 17 18 19 21 22 24 26 27 26 22 18 17 17 18 19 20 21 21 21 21 21 20 18 19 19 19 18 19 21 23 24 24 25 25 26 27 28 29 30 30 31 32 32 32 32 32 32 32 33 33 34 34 34 34 36 40 45 50 53 53 52 50
24 23 22 21 20 19 17 16 15 14 12 10 9 7 7 6 6 6 6 8 9 10 12 13 14 15 16 18 20 22 24 26 26 23 18 17 17 19 20 20 21 21 21 21 21 20 16 15 17 18 17 16 16 18 20 22 23 24 25 26 27 28 29 30 31 32 32 32 32 31 31 32 32 33 33 33 34 35 38 42 47 51 54 55 55 54
23 22 22 21 20 19 18 17 16 15 14 12 10 9 7 6 6 5 5 6 7 8 10 12 13 14 15 16 19 21 24 25 26 25 22 21 21 22 24 24 24 23 23 23 24 24 23 21 22 23 22 20 18 16 16 18 20 23 25 26 27 28 29 30 31 31 32 32 31 31 31 31 31 32 32 33 35 37 40 44 48 51 54 56 57 57
23 22 22 22 21 21 20 19 17 16 15 14 12 10 9 8 7 6 6 5 6 7 9 11 13 14 15 16 18 19 20 20 20 21 21 22 23 25 26 27 26 26 25 25 26 26 27 27 28 28 28 27 25 21 18 17 17 20 23 25 27 28 29 30 31 31 32 31 31 30 30 30 30 31 32 34 36 39 42 46 49 51 52 54 55 57
23 23 23 23 23 23 22 21 20 19 18 16 14 13 11 10 10 9 8 7 7 8 9 11 13 15 17 18 19 20 19 17 14 14 16 19 21 23 25 27 27 27 26 26 27 28 28 29 29 30 30 31 30 27 23 20 18 18 21 24 26 28 29 30 31 31 31 31 31 30 30 30 31 32 34 36 39 41 44 47 49 51 51 51 52 54
23 23 23 24 24 24 24 24 23 22 21 19 17 15 14 13 13 12 11 11 10 10 11 12 14 16 18 20 22 23 23 21 17 13 12 15 18 21 23 25 26 26 26 27 27 28 29 29 29 29 30 30 31 31 28 24 21 19 19 22 25 27 29 30 31 31 31 31 30 30 31 32 34 36 37 39 41 43 46 48 50 50 50 49 50 52
23 23 24 24 24 25 25 25 25 24 24 23 21 18 16 15 14 14 13 13 12 12 12 13 14 16 18 20 23 25 26 25 23 19 15 13 15 19 23 25 25 26 26 27 27 27 28 28 28 29 29 30 31 31 31 28 25 22 20 21 23 26 29 30 30 31 31 30 31 31 33 35 37 39 40 42 43 45 47 48 49 50 49 49 49 51
23 24 24 24 24 25 25 26 25 25 25 24 24 22 20 18 16 14 14 13 13 13 14 14 14 15 17 19 22 24 26 27 25 23 20 17 15 16 20 24 26 27 27 27 26 26 27 27 28 28 29 30 31 32 32 30 28 25 22 21 22 25 27 29 30 30 30 30 31 33 35 37 40 42 44 45 46 48 49 50 50 49 48 48 50 52
24 24 24 25 25 25 26 26 26 26 26 25 25 24 23 21 19 17 15 14 14 14 14 15 15 16 16 18 20 23 25 26 27 26 23 20 17 16 17 22 26 27 27 26 26 26 27 28 28 28 28 29 30 31 32 31 29 27 24 23 23 24 27 28 29 30 30 31 33 35 38 40 43 45 47 48 49 50 52 52 52 50 49 49 50 52
24 24 24 25 25 25 26 26 26 26 26 26 25 24 24 23 22 20 18 16 14 14 13 14 15 15 16 16 18 20 23 25 27 26 25 23 20 18 18 20 23 26 26 26 27 27 28 29 29 28 28 28 29 30 31 31 30 28 25 24 24 26 27 29 30 31 32 33 35 38 41 44 46 48 49 50 51 52 53 53 53 51 50 50 52 53
23 24 24 24 24 24 25 26 26 26 26 26 25 25 24 24 24 23 22 19 17 14 13 13 13 14 14 14 14 16 18 21 23 24 25 24 22 20 19 19 20 22 23 25 27 28 29 30 30 30 29 28 28 29 30 31 30 29 27 26 26 27 28 30 32 33 34 35 37 39 42 46 49 51 51 52 52 52 53 53 53 52 51 51 52 53
21 22 23 23 24 24 24 25 25 25 25 25 25 24 24 24 25 25 24 22 19 16 14 13 13 13 13 12 12 11 12 14 17 20 22 23 22 21 20 19 20 20 21 23 26 28 30 31 32 32 31 29 28 28 29 30 31 30 28 27 26 27 29 32 35 37 38 39 40 42 44 47 50 52 53 53 53 53 53 53 53 52 52 52 53 53
20 21 22 22 22 23 23 23 24 24 24 24 24 24 24 24 25 25 25 23 21 18 16 15 15 15 15 15 13 11 10 10 12 15 18 21 21 20 18 17 18 20 22 23 25 27 29 31 33 33 33 31 30 29 29 30 30 30 30 28 27 28 32 35 37 39 41 43 44 45 47 49 51 52 53 54 54 55 55 54 54 54 54 54 54 54
20 21 21 21 21 21 22 22 22 23 23 24 24 24 24 24 24 25 25 24 22 19 17 16 15 16 17 17 17 16 14 13 12 12 14 17 18 17 15 14 15 17 20 23 24 26 28 30 32 34 34 33 32 31 30 30 30 30 30 28 28 30 33 36 38 41 43 46 47 49 50 51 52 52 53 54 55 56 56 56 56 56 56 55 54 54
21 21 21 20 20 20 21 21 22 22 22 23 23 24 24 24 24 24 24 24 23 21 19 17 17 18 20 20 20 19 18 17 15 13 13 14 16 16 14 13 13 15 17 20 23 24 26 28 31 33 34 34 34 33 32 31 31 31 31 30 29 29 31 34 38 42 45 47 49 51 52 53 53 53 54 54 55 56 57 57 58 58 58 57 55 54
22 22 22 22 21 21 21 21 21 22 22 22 22 23 23 23 24 24 24 24 23 22 20 18 18 20 21 21 21 21 21 20 19 17 15 14 14 16 16 14 14 15 17 19 21 23 25 26 28 30 33 35 36 36 34 33 32 32 32 31 29 29 31 34 39 43 46 48 50 51 53 54 54 54 54 55 55 56 57 58 59 60 60 60 58 55
24 24 24 23 23 23 23 22 22 22 22 22 22 22 22 23 23 24 23 23 23 23 21 19 19 19 20 20 21 21 22 22 22 20 18 16 15 15 15 16 15 15 16 18 20 21 24 25 26 28 31 35 37 37 37 36 35 34 33 32 31 30 32 35 39 43 46 49 50 52 53 53 54 54 55 56 56 56 56 57 58 59 60 61 60 58
24 24 24 24 25 25 25 25 25 25 24 23 22 22 21 22 22 23 24 24 24 23 23 22 21 20 20 19 19 20 21 22 22 22 21 20 18 17 16 16 16 15 16 17 18 20 21 22 24 26 30 34 37 38 39 38 37 36 35 33 33 32 33 35 38 42 45 48 51 52 53 54 54 55 56 56 56 56 56 57 57 58 59 60 61 60
24 24 24 25 25 25 25 26 26 26 26 25 25 23 22 21 21 22 23 23 24 24 24 24 23 23 22 20 19 19 19 21 21 21 21 20 19 18 17 17 16 16 17 18 19 19 20 22 23 26 29 33 35 37 38 40 39 38 37 35 34 34 34 35 37 40 44 48 50 52 53 54 55 56 57 57 56 56 57 57 58 58 59 59 60 60
24 24 24 25 25 25 25 25 26 26 26 26 26 26 25 23 22 21 21 22 23 23 24 24 24 24 24 23 21 20 20 21 21 21 20 19 18 17 17 18 18 18 19 21 21 21 21 23 26 28 30 32 33 35 37 38 39 40 39 38 37 36 35 35 37 39 43 47 50 51 53 54 55 56 57 58 58 58 58 58 58 59 59 59 59 59
26 25 25 25 25 25 25 25 25 26 26 26 26 26 26 25 24 22 21 21 21 22 23 23 24 25 25 24 23 22 22 22 22 21 20 19 18 16 16 17 18 19 20 22 23 23 23 25 26 29 32 33 33 33 35 36 38 39 40 40 39 38 36 36 36 38 42 46 49 51 52 53 54 55 57 58 58 59 59 59 59 60 61 60 60 60
Wind_Direction
241 241 240 238 237 238 239 239 240 241 241 239 236 234 234 234 234 235 235 235 236 237 237 237 237 236 237 238 241 243 245 246 246 246 247 247 247 247 249 253 255 255 255 255 258 261 263 264 264 263 262 262 261 260 258 256 255 253 252 251 250 250 249 248 248 248 247 247 247 247 246 246 246 247 248 249 250 252 253 252 251 250 250 248 246 245
242 241 238 235 233 233 235 236 237 238 239 238 236 235 235 236 236 237 237 238 239 239 240 240 240 239 237 237 237 239 241 244 246 247 248 248 249 249 249 251 252 253 254 255 256 258 260 263 264 264 263 262 262 262 262 261 260 258 256 254 252 251 250 249 248 247 247 247 247 247 247 246 246 246 247 248 249 251 252 252 251 250 249 248 247 245
242 240 239 237 233 231 231 233 234 236 237 238 237 237 238 238 238 238 239 239 239 240 240 240 241 241 241 240 240 240 241 242 243 245 247 248 248 249 249 250 250 251 252 254 255 256 258 259 261 262 263 262 261 261 261 262 262 262 261 258 255 253 251 249 248 247 247 247 247 247 246 245 245 246 246 247 248 249 250 250 249 248 248 247 246 244
241 240 239 238 236 233 232 231 232 233 234 236 237 238 240 241 241 241 241 240 240 240 240 240 240 242 243 244 244 244 244 244 244 245 245 246 247 248 249 249 250 250 251 253 254 256 257 258 259 260 260 260 259 259 259 259 260 261 261 260 258 255 252 250 248 246 246 246 246 246 246 245 245 246 247 248 248 249 250 249 248 246 246 245 244 242
241 240 240 239 237 236 236 234 233 233 233 234 235 238 240 242 243 243 242 242 242 241 241 241 241 242 244 246 248 248 248 247 246 245 244 244 245 247 247 248 248 249 251 253 254 255 256 257 257 257 258 258 257 257 256 256 257 257 258 259 258 256 253 250 247 245 244 244 244 244 244 244 244 245 245 246 248 249 251 250 248 246 245 244 243 240
241 240 240 240 239 240 240 239 237 236 235 236 236 238 240 241 242 242 242 242 241 241 242 242 242 243 245 247 249 250 249 248 246 244 243 242 243 244 244 245 246 248 250 252 253 255 255 255 255 255 255 255 255 254 254 253 253 254 254 255 255 254 251 248 245 243 242 241 242 242 242 243 243 242 242 243 244 245 247 250 249 247 245 244 242 239
245 243 242 242 242 243 243 243 242 240 239 238 239 240 240 240 240 240 240 240 240 240 241 242 243 244 245 247 248 249 248 247 245 243 242 241 240 240 241 242 243 245 247 250 252 253 254 254 254 253 253 253 252 252 251 250 250 250 251 251 251 250 248 245 243 241 239 239 239 240 240 241 242 242 242 242 242 242 242 244 245 244 244 243 241 239
251 248 245 244 244 244 245 245 245 243 242 240 240 240 240 240 239 239 239 239 238 239 239 240 241 243 244 245 246 246 246 245 243 242 241 240 240 239 239 240 241 243 246 248 250 251 252 253 253 252 252 250 249 248 248 247 247 247 247 248 248 247 245 242 240 238 237 237 237 238 239 240 242 244 245 244 244 243 241 239 238 238 238 238 238 238
253 253 250 247 245 244 244 245 246 245 243 242 241 241 241 241 241 240 240 239 238 238 237 238 239 241 242 243 243 243 243 242 241 240 240 240 240 240 240 241 242 244 247 249 249 249 250 251 252 251 250 248 246 245 244 244 244 244 243 244 244 243 242 240 239 237 237 237 237 238 238 239 242 244 246 247 247 245 241 236 234 234 233 233 234 235
230 244 252 250 247 245 244 244 245 246 245 242 241 242 242 242 242 242 241 240 239 238 237 236 238 239 240 240 241 241 241 240 240 239 239 240 241 242 243 244 246 249 251 251 249 248 248 250 250 250 248 245 243 242 242 242 242 241 241 241 242 242 241 241 240 240 239 239 239 239 240 240 242 244 246 249 249 246 240 235 232 231 231 232 233 234
216 220 235 248 248 246 244 244 245 246 246 243 241 241 242 242 242 241 241 240 240 239 237 236 236 238 239 239 239 239 239 239 239 239 239 241 243 245 246 249 251 254 254 252 249 247 246 247 247 246 244 241 239 239 239 240 240 241 242 243 243 244 244 244 244 244 244 244 243 243 242 241 242 244 246 249 249 246 241 235 231 229 230 232 235 236
347 349 353 354 276 244 241 241 243 243 243 241 239 238 239 240 241 241 240 240 239 239 238 237 237 237 238 239 239 239 239 239 239 239 240 241 244 246 248 251 253 255 253 250 247 245 244 243 242 241 239 237 236 236 237 238 240 242 244 245 247 247 248 248 249 249 248 248 247 246 245 243 243 243 245 248 248 246 243 238 233 229 230 234 237 239
332 339 346 356 9 19 29 207 226 233 236 236 235 235 237 239 240 240 239 239 240 240 239 238 239 239 239 240 240 241 241 241 241 241 242 243 245 247 249 251 253 252 250 247 244 242 240 239 237 236 235 235 234 235 236 238 240 243 245 247 248 249 250 251 252 252 251 250 249 247 246 245 244 244 244 245 246 245 243 240 235 231 230 234 238 239
323 325 328 332 337 345 358 26 47 54 217 226 230 234 237 237 237 237 238 238 239 240 240 239 240 241 242 242 242 243 243 244 244 244 245 246 247 249 250 251 252 251 248 244 241 238 236 235 234 233 233 234 234 235 237 239 241 244 246 248 249 249 250 251 252 253 252 251 249 248 247 246 245 245 245 245 245 245 244 241 237 232 231 233 235 235
323 324 325 326 326 327 332 344 355 358 353 343 235 229 223 222 225 230 234 238 240 241 241 241 242 243 245 246 247 247 246 246 246 246 247 248 249 251 252 252 252 251 247 243 240 237 235 234 233 234 234 235 237 238 239 241 244 246 248 249 249 249 249 250 251 252 252 251 249 247 246 245 245 245 245 245 245 244 244 242 238 234 231 231 232 231
326 326 327 325 324 324 325 330 333 330 319 311 309 300 244 229 224 224 229 236 242 245 248 248 246 245 246 249 251 252 250 249 247 247 248 249 251 253 253 252 252 250 247 244 241 238 237 236 236 237 238 240 241 242 244 245 247 248 249 249 249 248 248 248 250 250 250 249 248 247 245 244 243 243 243 243 243 243 242 241 238 235 232 230 229 228
330 330 330 330 330 330 330 330 327 318 308 302 303 310 319 323 318 299 267 252 242 242 256 267 260 251 246 246 249 251 251 249 248 248 248 249 251 254 254 253 251 250 249 246 244 242 242 242 242 243 244 245 246 246 247 248 249 249 249 248 247 246 246 247 248 249 249 248 247 245 243 242 241 241 241 241 241 241 240 239 238 236 233 231 230 228
332 335 335 336 335 334 331 328 319 309 302 300 300 303 310 318 325 327 321 304 271 248 248 278 285 274 260 251 247 247 248 247 246 246 246 247 250 254 255 254 252 251 251 250 248 247 247 247 247 247 247 248 249 249 250 250 250 249 248 247 246 245 246 246 247 247 247 246 244 242 241 239 239 239 239 239 238 238 237 237 237 236 235 233 231 228
331 336 338 337 331 324 318 312 306 303 302 303 304 305 306 309 313 317 320 323 319 305 289 290 300 301 292 284 270 257 250 246 243 241 240 242 247 251 253 253 252 252 252 252 252 251 250 249 249 249 249 250 251 251 252 251 250 249 247 246 245 244 244 245 245 245 244 243 241 239 238 237 236 236 236 236 236 235 234 235 235 236 235 233 230 227
330 336 334 324 313 305 300 297 297 298 302 303 304 305 306 305 306 307 310 313 314 312 310 306 302 296 288 281 281 277 266 255 246 239 236 237 241 245 249 250 250 250 251 252 252 252 251 250 250 250 250 250 251 251 250 249 248 246 244 243 242 242 242 242 242 241 240 239 237 236 235 234 234 233 234 233 233 232 231 232 233 234 233 231 228 224
309 310 304 294 292 293 292 292 293 296 299 301 302 303 303 303 303 303 304 305 305 304 302 302 299 293 283 274 269 268 272 270 258 246 238 236 237 240 243 245 246 247 249 250 250 250 249 249 248 248 248 248 248 247 246 244 243 241 240 239 239 239 239 239 238 237 236 235 234 233 232 232 232 232 232 232 231 230 230 231 232 232 230 227 224 220
284 282 280 280 283 285 286 288 290 293 296 299 301 301 302 302 302 302 301 301 301 299 298 296 292 288 286 285 280 273 268 275 272 260 247 240 238 238 240 241 242 242 243 245 246 246 246 245 245 245 245 245 244 243 241 240 239 237 236 236 236 236 236 236 235 234 233 232 232 231 231 231 231 231 231 231 230 229 229 230 230 230 227 224 221 217
276 277 277 278 278 279 281 284 286 288 292 296 297 298 299 299 298 298 298 298 297 295 292 289 286 285 287 289 288 283 274 274 274 266 255 245 242 242 242 240 239 238 239 240 240 241 241 240 240 241 241 241 241 240 239 238 237 236 235 234 234 234 234 234 233 233 232 231 230 230 230 230 230 230 230 230 229 228 228 229 229 228 225 222 218 214
274 274 274 274 275 276 277 278 281 284 289 292 294 295 296 296 295 294 293 294 293 293 292 291 290 289 288 289 289 289 286 281 278 270 259 250 247 246 245 243 239 237 237 237 238 238 238 237 237 238 238 239 240 240 239 238 237 235 234 234 233 233 233 233 233 232 231 230 230 229 229 228 229 229 228 228 228 227 228 229 228 227 223 220 216 212
287 282 278 276 276 276 278 279 281 283 285 287 289 291 292 293 293 293 293 293 293 294 295 295 295 294 292 291 290 291 294 295 295 282 264 252 249 249 249 247 244 242 241 240 240 239 238 237 237 237 238 239 240 240 240 239 237 236 235 234 234 233 233 233 232 232 231 230 229 228 228 228 227 227 226 226 225 226 227 227 227 225 221 217 214 210
309 302 295 289 284 282 281 281 282 282 283 284 286 287 288 289 291 292 293 293 295 296 297 296 295 293 292 292 293 294 295 297 301 293 272 255 249 249 252 253 252 250 249 248 246 244 242 240 239 239 240 241 241 241 241 240 239 237 236 235 235 234 233 233 232 231 231 230 229 228 227 227 226 224 223 223 223 224 225 225 225 222 218 215 211 207
316 313 310 306 302 297 293 289 286 285 284 284 284 285 287 289 291 292 294 295 297 298 297 295 293 291 290 291 292 292 292 291 292 291 282 264 254 251 253 256 258 258 257 256 254 252 249 246 243 242 242 242 243 243 243 242 240 239 238 237 236 235 235 234 233 232 231 230 229 228 227 226 224 222 220 219 220 221 222 222 221 218 215 211 208 204
317 316 317 318 318 316 313 307 301 296 291 288 287 286 287 289 291 293 294 298 299 299 295 292 290 290 289 288 287 285 285 283 282 283 285 280 268 259 256 258 260 261 263 263 263 262 258 253 249 245 243 243 243 244 243 242 241 240 239 238 238 237 236 235 234 233 231 230 229 228 226 224 222 219 216 216 216 217 218 218 217 215 211 208 204 200
318 320 322 323 325 326 325 323 319 314 309 303 296 291 288 288 288 288 290 296 299 299 296 293 290 288 286 286 285 283 282 281 281 282 284 287 281 272 266 264 264 265 267 269 271 271 268 263 256 249 245 243 243 243 243 242 241 240 239 238 238 238 237 236 235 233 232 230 229 227 225 222 219 216 214 212 212 213 213 214 213 211 209 206 202 198
323 325 327 329 331 332 331 330 328 326 323 321 316 308 299 292 286 283 283 288 291 294 296 296 293 290 288 288 287 286 283 282 282 284 286 287 284 279 277 274 273 273 274 275 276 277 277 274 267 257 249 244 242 241 241 241 240 239 239 238 237 237 236 236 235 233 232 230 228 225 222 219 216 213 211 210 209 209 209 210 210 209 207 205 201 197
326 328 331 333 335 336 336 335 334 332 330 329 329 327 322 310 296 285 279 278 276 276 282 287 291 291 290 289 286 283 281 280 280 281 286 287 284 281 281 280 280 280 280 280 278 277 280 282 278 270 259 250 244 241 240 239 238 238 237 237 237 236 236 235 234 233 231 229 226 223 219 215 213 211 209 208 207 207 207 207 207 207 206 204 201 197
326 329 331 334 337 338 339 339 339 337 336 334 335 336 336 332 321 305 287 277 267 263 264 266 273 279 283 283 279 276 276 277 276 276 276 279 280 279 278 278 280 281 281 282 280 277 276 279 283 282 277 269 259 250 243 239 236 235 235 235 235 235 235 234 232 230 228 226 222 218 214 212 210 209 208 207 206 206 205 205 205 206 205 204 201 199
327 329 331 334 336 338 341 342 342 342 340 339 338 337 338 337 332 322 307 290 278 270 266 261 262 266 270 275 277 278 279 281 281 279 275 272 271 272 273 273 275 276 277 278 279 278 275 276 279 283 284 282 279 272 261 248 239 234 232 232 232 233 232 231 229 227 223 220 216 212 210 208 208 208 208 207 207 206 205 205 204 204 205 204 203 202
330 331 333 334 336 338 340 342 344 344 343 341 337 334 330 325 320 314 305 292 281 277 278 271 267 266 267 271 274 276 279 283 285 286 282 275 268 266 268 268 269 270 272 273 274 274 274 275 277 280 281 282 281 280 277 267 251 238 231 229 228 228 228 226 224 221 217 213 209 206 205 206 208 209 209 209 209 208 206 205 204 204 205 205 205 204
334 335 336 337 338 339 340 341 342 343 344 342 339 333 326 319 312 305 296 285 272 266 268 268 266 264 264 267 269 268 266 265 269 279 285 282 275 270 268 266 265 266 267 268 269 270 270 272 273 275 277 279 279 278 277 275 266 251 237 229 225 223 222 220 217 214 210 206 203 202 203 205 208 210 211 211 210 209 207 206 205 205 206 207 207 206
340 340 341 342 342 343 343 342 341 341 342 342 341 338 331 325 318 311 304 294 282 271 264 260 258 256 256 259 263 263 259 252 246 248 264 279 282 278 272 269 267 265 265 266 266 267 268 269 271 272 274 275 276 275 274 273 271 264 249 235 225 220 217 215 211 207 203 200 199 200 202 205 208 210 211 211 210 209 208 206 206 205 206 208 209 208
341 342 344 344 344 344 343 341 340 340 340 340 341 340 337 333 327 320 313 306 297 287 278 269 262 257 255 256 259 260 260 255 246 238 239 253 269 276 275 274 271 268 265 265 265 266 267 268 269 270 270 271 271 272 272 271 270 268 260 245 231 221 215 211 207 203 200 198 199 202 204 206 208 209 210 210 210 209 208 207 206 206 206 208 209 208
340 341 342 343 343 342 341 339 338 338 338 338 338 339 338 337 334 329 322 314 305 297 289 282 274 265 258 256 256 258 260 258 251 243 238 238 247 262 270 273 272 269 266 265 265 266 266 265 264 265 266 268 269 269 269 269 269 268 266 256 241 228 218 211 206 203 202 202 204 205 206 207 208 208 208 208 208 207 206 206 206 206 206 207 207 206
339 339 340 341 340 339 337 336 335 336 337 337 336 336 336 336 336 334 331 323 313 302 292 286 281 275 268 261 256 255 256 255 252 247 242 239 240 248 260 268 270 269 267 266 265 264 264 263 261 262 264 266 268 268 268 267 266 266 266 261 251 239 227 218 211 208 207 208 209 210 209 208 207 207 206 205 205 204 204 203 203 204 205 205 205 204
337 336 337 337 336 334 333 333 333 334 334 334 333 333 334 335 335 335 333 329 321 310 298 289 283 278 274 269 263 258 254 252 251 249 246 245 243 246 254 262 266 267 267 266 264 262 261 261 261 262 264 265 266 266 266 265 263 262 263 260 252 243 235 227 221 216 214 214 214 212 211 208 207 206 205 204 203 203 202 201 201 202 203 204 203 202
334 333 333 333 332 332 332 333 332 332 331 331 331 332 333 334 334 334 333 331 327 320 310 298 287 279 274 273 270 264 257 253 250 249 248 249 250 252 254 255 257 259 262 263 263 261 260 259 259 261 262 263 264 264 263 262 261 260 259 257 253 246 239 232 227 223 220 219 217 215 213 210 207 206 205 204 203 203 202 201 201 201 203 204 204 203
330 329 328 329 330 331 333 332 331 330 329 330 330 331 331 331 331 330 331 331 330 326 319 311 303 296 289 281 276 271 262 255 250 248 248 250 253 255 258 257 256 254 255 258 261 261 260 258 258 258 259 260 260 260 259 259 258 257 256 257 255 249 240 231 227 224 222 221 219 218 215 211 208 207 206 205 204 203 203 203 204 204 204 205 206 206
325 324 325 327 330 332 334 333 332 331 331 330 329 329 329 329 329 329 329 330 330 328 324 319 314 310 304 298 293 286 277 269 260 252 248 247 249 252 256 259 261 260 256 255 257 260 260 259 258 257 257 257 257 256 255 255 255 254 252 253 252 245 233 226 222 220 218 218 217 217 215 213 211 209 208 206 205 204 204 205 206 207 207 206 205 207
324 324 325 328 331 333 334 334 334 333 332 330 329 328 328 328 328 327 327 328 329 329 327 323 318 313 310 308 306 300 289 279 270 259 251 246 245 247 253 263 269 267 262 256 255 257 259 259 258 257 256 255 254 253 253 253 252 251 249 249 248 244 236 229 223 218 214 213 214 215 215 214 212 210 209 207 206 205 204 205 207 208 208 206 205 206
326 326 328 330 332 333 335 336 335 334 333 331 330 328 327 327 326 325 325 325 327 329 330 328 324 319 316 313 309 304 297 288 280 271 262 253 247 247 254 269 280 280 274 265 260 257 258 258 258 257 255 253 252 251 250 250 250 249 247 245 245 246 244 238 230 221 214 211 210 211 212 212 211 209 208 206 206 206 206 207 207 208 207 206 205 205
330 331 332 334 335 337 338 337 337 336 335 334 332 329 327 325 324 323 323 323 323 324 326 328 326 321 318 315 311 307 303 299 293 285 275 266 258 254 256 265 277 286 286 279 271 264 258 257 258 258 256 253 250 249 249 249 248 247 245 243 242 242 241 237 230 224 217 212 210 209 210 210 209 208 206 205 205 206 207 208 208 208 208 207 206 206
333 334 336 337 337 337 337 337 338 338 338 336 334 331 329 326 324 323 321 320 319 319 320 321 322 321 319 317 314 311 309 306 301 293 284 276 271 267 263 263 269 280 287 285 279 271 262 257 257 257 255 251 248 247 248 249 248 246 244 242 240 239 237 234 230 225 220 215 211 209 208 208 207 206 206 206 205 206 207 208 209 209 209 208 208 208
335 336 336 336 336 336 337 337 338 338 337 337 336 334 331 328 326 323 321 318 317 317 316 317 318 319 318 317 316 314 313 311 307 301 294 287 282 279 274 269 270 277 285 287 282 275 267 262 258 256 254 250 247 245 246 247 247 246 244 242 240 237 235 234 231 227 222 217 213 210 208 206 205 205 205 205 204 204 205 207 208 209 209 210 210 209
336 336 335 335 334 334 334 335 336 335 334 335 336 335 333 331 328 325 322 319 317 316 315 315 316 316 315 315 316 317 317 315 313 309 304 298 291 284 279 275 275 280 287 291 289 282 274 267 261 256 253 248 246 245 245 246 247 247 246 243 240 237 235 234 232 229 224 218 214 211 209 208 208 207 206 204 203 203 205 206 207 209 210 210 211 211
336 335 334 334 333 332 332 333 333 332 332 333 333 334 334 333 331 327 323 319 316 314 312 312 312 312 312 312 314 317 318 318 316 314 311 309 302 292 283 278 278 283 291 296 296 291 283 273 264 256 251 247 244 243 242 243 244 245 244 243 241 238 236 234 232 230 226 221 216 213 210 209 208 208 207 205 204 204 205 206 207 208 210 211 211 211
336 335 333 333 332 331 331 331 331 331 330 331 331 331 332 333 333 331 327 322 317 313 309 308 308 308 309 311 313 315 316 317 315 313 312 312 309 302 292 283 280 284 291 296 296 293 287 280 272 262 254 247 243 241 240 240 240 240 239 239 239 238 236 234 233 230 227 223 219 215 212 209 207 206 206 205 204 204 205 206 206 208 210 211 211 211